N8VIM Weather Reports


time (UTC)temp
C
wind
direction
speed
KPH
gust
KPH
rain 1hr
cm
rain 24hr
cm
rain mn
cm
humidity
%
barometer
mb
20260510223523 14 263 0.0 4.8 322.07 0.00 0.38 89 1012.5
20260510223024 14 276 1.6 8.0 322.07 0.00 0.38 88 1012.5
20260510222523 14 305 6.4 16.1 322.07 0.00 0.38 87 1012.8
20260510222023 15 294 6.4 14.5 322.07 0.00 0.38 85 1012.9
20260510221524 15 280 6.4 12.9 322.05 0.00 0.36 82 1012.9
20260510221023 16 264 8.0 25.7 321.97 0.00 0.28 78 1012.7
20260510220523 17 284 12.9 25.7 321.82 0.00 0.13 71 1012.5
20260510220024 17 285 11.3 24.1 321.79 0.00 0.10 68 1011.8
20260510215523 18 284 8.0 8.0 321.79 0.00 0.10 78 1011.5
20260510215023 18 294 4.8 6.4 321.79 0.00 0.10 80 1011.4
20260510214524 18 0 0.0 0.0 321.79 0.00 0.10 80 1011.3
20260510214023 18 300 0.0 1.6 321.79 0.00 0.10 78 1011.3
20260510213523 18 0 0.0 0.0 321.79 0.00 0.10 76 1011.3
20260510213024 18 222 0.0 3.2 321.79 0.00 0.10 75 1011.2
20260510212023 18 0 0.0 0.0 321.79 0.00 0.10 77 1011.3
20260510211524 18 226 0.0 3.2 321.79 0.00 0.10 77 1011.4
20260510211023 18 188 1.6 4.8 321.79 0.00 0.10 80 1011.5
20260510210024 17 155 0.0 4.8 321.79 0.00 0.10 82 1011.5
20260510205523 17 260 0.0 20.9 321.79 0.00 0.10 80 1011.5
20260510205023 17 270 6.4 16.1 321.79 0.00 0.10 77 1011.7
20260510204524 18 264 8.0 12.9 321.77 0.00 0.08 73 1011.7
20260510204023 18 288 1.6 11.3 321.69 0.00 0.00 68 1011.4
20260510203523 19 295 3.2 9.7 321.69 0.00 0.00 68 1011.4
20260510203024 19 276 6.4 9.7 321.69 0.00 0.00 68 1011.4
20260510202523 20 288 6.4 12.9 321.69 0.00 0.00 66 1011.1
20260510202023 20 274 4.8 11.3 321.69 0.00 0.00 64 1011.0
20260510201524 20 236 1.6 8.0 321.69 0.00 0.00 65 1011.0
20260510201023 20 205 3.2 16.1 321.69 0.00 0.00 65 1011.1
20260510200523 20 163 4.8 17.7 321.69 0.00 0.00 62 1011.2
20260510200024 21 197 3.2 14.5 321.69 0.00 0.00 61 1011.1
20260510195523 21 177 8.0 12.9 321.69 0.00 0.00 57 1010.9
20260510195023 21 231 8.0 14.5 321.69 0.00 0.00 54 1010.9
20260510194525 21 283 3.2 9.7 321.69 0.00 0.00 54 1010.8
20260510194023 21 183 3.2 11.3 321.69 0.00 0.00 54 1010.9
20260510193523 21 183 3.2 17.7 321.69 0.00 0.00 53 1010.9
20260510193024 21 273 9.7 16.1 321.69 0.00 0.00 54 1011.0
20260510192523 21 186 9.7 27.4 321.69 0.00 0.00 51 1011.1
20260510192023 21 211 3.2 14.5 321.69 0.00 0.00 57 1011.0
20260510191524 21 302 3.2 8.0 321.69 0.00 0.00 55 1011.0
20260510191024 21 211 3.2 17.7 321.69 0.00 0.00 57 1011.2
20260510190523 21 166 3.2 17.7 321.69 0.00 0.00 55 1011.2
20260510190024 21 301 6.4 19.3 321.69 0.00 0.00 54 1011.2
20260510185523 21 277 8.0 14.5 321.69 0.00 0.00 52 1011.2
20260510185023 22 218 9.7 24.1 321.69 0.00 0.00 52 1011.2
20260510184524 22 293 4.8 12.9 321.69 0.00 0.00 52 1011.2
20260510184023 22 172 6.4 19.3 321.69 0.00 0.00 52 1011.0
20260510183523 22 201 3.2 16.1 321.69 0.00 0.00 49 1011.1
20260510183023 22 167 6.4 17.7 321.69 0.00 0.00 52 1011.3
20260510182523 22 210 12.9 22.5 321.69 0.00 0.00 52 1011.3
20260510182023 22 186 9.7 22.5 321.69 0.00 0.00 50 1011.4
20260510181523 23 194 9.7 20.9 321.69 0.00 0.00 51 1011.4
20260510180523 23 173 9.7 19.3 321.69 0.00 0.00 52 1011.4
20260510180023 22 177 12.9 24.1 321.69 0.00 0.00 50 1011.4
20260510175023 22 222 12.9 24.1 321.69 0.00 0.00 50 1011.4
20260510174523 22 215 4.8 11.3 321.69 0.00 0.00 53 1011.5
20260510174023 22 207 4.8 17.7 321.69 0.00 0.00 54 1011.5
20260510173523 22 215 3.2 17.7 321.69 0.00 0.00 54 1011.6
20260510173025 22 165 3.2 29.0 321.69 0.00 0.00 56 1011.7
20260510172523 21 169 6.4 17.7 321.69 0.00 0.00 57 1011.7
20260510172023 21 211 9.7 19.3 321.69 0.00 0.00 56 1011.8
20260510171523 21 155 6.4 20.9 321.69 0.00 0.00 62 1011.9
20260510171023 21 146 8.0 22.5 321.69 0.00 0.00 59 1011.9
20260510170523 21 211 11.3 22.5 321.69 0.00 0.00 58 1011.8
20260510170023 21 304 11.3 17.7 321.69 0.00 0.00 56 1011.9
20260510165523 21 174 8.0 19.3 321.69 0.00 0.00 59 1011.9
20260510165023 21 139 9.7 24.1 321.69 0.00 0.00 59 1011.9
20260510164523 20 176 6.4 14.5 321.69 0.00 0.00 62 1011.9
20260510164023 20 200 11.3 17.7 321.69 0.00 0.00 59 1012.0
20260510163523 20 204 4.8 16.1 321.69 0.00 0.00 63 1012.1
20260510163023 20 174 6.4 17.7 321.69 0.00 0.00 63 1012.1
20260510162023 18 191 6.4 19.3 321.69 0.00 0.00 69 1012.2
20260510161523 18 210 4.8 12.9 321.69 0.00 0.00 65 1012.2
20260510161023 18 174 8.0 9.7 321.69 0.00 0.00 66 1012.3
20260510160524 18 309 6.4 14.5 321.69 0.00 0.00 66 1012.2
20260510160023 18 218 8.0 14.5 321.69 0.00 0.00 66 1012.3
20260510155023 18 177 9.7 14.5 321.69 0.00 0.00 68 1012.4
20260510154523 18 191 9.7 19.3 321.69 0.00 0.00 72 1012.3
20260510154023 17 170 12.9 19.3 321.69 0.00 0.00 74 1012.4
20260510153523 17 214 11.3 14.5 321.69 0.00 0.00 75 1012.5
20260510153023 17 165 3.2 12.9 321.69 0.00 0.00 77 1012.5
20260510152522 16 280 8.0 9.7 321.69 0.00 0.00 79 1012.6
20260510152022 16 294 3.2 8.0 321.69 0.00 0.00 78 1012.7
20260510151524 16 297 1.6 8.0 321.69 0.00 0.00 79 1012.7
20260510151023 16 288 4.8 11.3 321.69 0.00 0.00 76 1012.6
20260510150522 16 188 4.8 9.7 321.69 0.00 0.00 80 1012.7
20260510150023 16 205 4.8 6.4 321.69 0.00 0.00 83 1012.6
20260510145523 16 170 3.2 16.1 321.69 0.00 0.00 83 1012.6
20260510145023 16 290 8.0 9.7 321.69 0.00 0.00 81 1012.7
20260510144523 15 163 4.8 14.5 321.69 0.00 0.00 84 1012.7
20260510143523 15 153 4.8 9.7 321.69 0.00 0.00 90 1012.8
20260510143023 14 160 3.2 9.7 321.69 0.00 0.00 89 1012.9
20260510142523 14 186 1.6 12.9 321.69 0.00 0.00 91 1012.9
20260510141523 14 167 1.6 9.7 321.69 0.00 0.00 94 1013.0
20260510141022 13 177 6.4 9.7 321.69 0.00 0.00 95 1012.9
20260510140522 13 203 3.2 8.0 321.69 0.00 0.00 96 1012.8
20260510140023 13 302 6.4 4.8 321.69 0.00 0.00 96 1012.8
20260510135522 13 183 1.6 9.7 321.69 0.00 0.00 97 1012.8
20260510135022 13 172 6.4 11.3 321.69 0.00 0.00 97 1012.9
20260510134022 12 260 3.2 6.4 321.69 0.00 0.00 98 1012.8
20260510133522 13 297 3.2 6.4 321.69 0.00 0.00 98 1012.8
20260510133023 12 98 0.0 4.8 321.69 0.00 0.00 98 1012.8
20260510132523 12 121 3.2 4.8 321.69 0.00 0.00 98 1012.8
20260510132023 12 240 0.0 4.8 321.69 0.00 0.00 98 1012.9
20260510131523 12 205 1.6 6.4 321.69 0.00 0.00 98 1012.9
20260510131022 12 204 0.0 6.4 321.69 0.00 0.00 98 1012.9
20260510130524 12 148 3.2 4.8 321.69 0.00 0.00 99 1012.8
20260510130023 12 212 0.0 6.4 321.69 0.00 0.00 99 1012.8
20260510125522 12 191 0.0 3.2 321.69 0.00 0.00 99 1012.8
20260510125022 12 0 1.6 0.0 321.69 0.00 0.00 99 1012.8
20260510124523 12 174 0.0 6.4 321.69 0.00 0.00 99 1012.8
20260510124022 12 0 0.0 0.0 321.69 0.00 0.00 99 1012.9
20260510123522 11 274 0.0 3.2 321.69 0.00 0.00 99 1012.9
20260510123023 11 198 0.0 4.8 321.69 0.00 0.00 99 1012.8
20260510122522 11 181 3.2 8.0 321.69 0.00 0.00 99 1012.8
20260510122022 11 184 1.6 6.4 321.69 0.00 0.00 99 1012.7
20260510121523 11 197 3.2 8.0 321.69 0.00 0.00 99 1012.8
20260510121022 11 183 0.0 6.4 321.69 0.00 0.00 99 1012.9
20260510120023 11 187 0.0 4.8 321.69 0.00 0.00 99 1012.7
20260510115522 11 219 0.0 6.4 321.69 0.00 0.00 99 1012.6
20260510115022 11 224 3.2 4.8 321.69 0.00 0.00 99 1012.4
20260510114523 11 167 1.6 8.0 321.69 0.00 0.00 99 1012.5
20260510113522 11 210 0.0 4.8 321.69 0.00 0.00 99 1012.5
20260510113023 11 191 1.6 8.0 321.69 0.00 0.00 99 1012.6
20260510112022 10 0 0.0 0.0 321.69 0.00 0.00 99 1012.7
20260510111523 10 166 0.0 3.2 321.69 0.00 0.00 99 1012.6
20260510111022 10 0 0.0 0.0 321.69 0.00 0.00 99 1012.6
20260510110522 10 0 0.0 0.0 321.69 0.00 0.00 99 1012.8
20260510110023 10 0 0.0 0.0 321.69 0.00 0.00 99 1012.6
20260510105523 10 0 0.0 0.0 321.69 0.00 0.00 99 1012.4
20260510105022 10 0 0.0 0.0 321.69 0.00 0.00 99 1012.3
20260510104023 10 165 3.2 6.4 321.69 0.00 0.00 99 1012.3
20260510103024 10 210 0.0 8.0 321.69 0.00 0.00 99 1012.2
20260510102522 10 229 0.0 8.0 321.69 0.00 0.00 99 1012.0
20260510102022 10 221 0.0 8.0 321.69 0.00 0.00 99 1011.8
20260510101524 10 165 1.6 4.8 321.69 0.00 0.00 99 1011.7
20260510101022 10 283 1.6 3.2 321.69 0.00 0.00 99 1011.9
20260510100522 9 184 0.0 6.4 321.69 0.00 0.00 99 1011.8
20260510100023 9 200 1.6 4.8 321.69 0.00 0.00 99 1012.0
20260510095522 9 0 0.0 0.0 321.69 0.00 0.00 99 1011.9
20260510094524 9 0 0.0 0.0 321.69 0.00 0.00 99 1011.9
20260510094022 9 0 0.0 0.0 321.69 0.00 0.00 99 1011.9
20260510093523 9 0 0.0 0.0 321.69 0.00 0.00 99 1011.9
20260510093023 9 0 0.0 0.0 321.69 0.00 0.00 99 1012.0
20260510092523 9 0 0.0 0.0 321.69 0.00 0.00 98 1011.9
20260510092022 9 0 0.0 0.0 321.69 0.00 0.00 99 1011.9
20260510091523 9 0 0.0 0.0 321.69 0.00 0.00 99 1011.8
20260510091022 9 0 0.0 0.0 321.69 0.00 0.00 99 1011.9
20260510090523 9 0 0.0 0.0 321.69 0.00 0.00 99 1011.8
20260510090023 9 0 0.0 0.0 321.69 0.00 0.00 99 1011.7
20260510085522 9 0 0.0 0.0 321.69 0.00 0.00 99 1011.8
20260510085022 9 0 0.0 0.0 321.69 0.00 0.00 99 1011.7
20260510084523 9 0 0.0 0.0 321.69 0.00 0.00 99 1011.8
20260510084022 9 0 0.0 0.0 321.69 0.00 0.00 99 1011.8
20260510083522 8 0 0.0 0.0 321.69 0.00 0.00 99 1011.9
20260510083023 8 0 0.0 0.0 321.69 0.00 0.00 99 1011.8
20260510082526 8 0 0.0 0.0 321.69 0.00 0.00 98 1011.7
20260510082023 8 0 0.0 0.0 321.69 0.00 0.00 99 1011.8
20260510081523 8 0 0.0 0.0 321.69 0.00 0.00 99 1011.8
20260510080522 8 252 0.0 1.6 321.69 0.00 0.00 98 1011.7
20260510080024 8 0 0.0 0.0 321.69 0.00 0.00 98 1011.7
20260510075523 8 0 0.0 0.0 321.69 0.00 0.00 98 1011.6
20260510075022 8 0 0.0 0.0 321.69 0.00 0.00 98 1011.7
20260510074523 8 278 0.0 3.2 321.69 0.00 0.00 98 1011.5
20260510073525 8 257 4.8 6.4 321.69 0.00 0.00 98 1011.7
20260510073025 8 271 3.2 6.4 321.69 0.00 0.00 98 1011.7
20260510072522 8 290 4.8 8.0 321.69 0.00 0.00 98 1011.5
20260510072022 8 276 4.8 6.4 321.69 0.00 0.00 98 1011.6
20260510071522 8 284 1.6 6.4 321.69 0.00 0.00 98 1011.4
20260510071022 8 297 1.6 4.8 321.69 0.00 0.00 98 1011.4
20260510070522 8 0 1.6 0.0 321.69 0.00 0.00 98 1011.2
20260510070023 8 0 0.0 0.0 321.69 0.00 0.00 98 1011.2
20260510065022 8 0 0.0 0.0 321.69 0.00 0.00 98 1011.0
20260510064522 8 0 0.0 0.0 321.69 0.00 0.00 98 1011.3
20260510064022 8 0 0.0 0.0 321.69 0.00 0.00 98 1011.3
20260510063522 8 0 0.0 0.0 321.69 0.00 0.00 98 1011.3
20260510063023 8 0 0.0 0.0 321.69 0.00 0.00 98 1011.5
20260510062522 8 0 0.0 0.0 321.69 0.00 0.00 98 1011.5
20260510062022 8 0 0.0 0.0 321.69 0.00 0.00 98 1011.3
20260510061522 8 0 0.0 0.0 321.69 0.00 0.00 98 1011.5
20260510061023 8 0 0.0 0.0 321.69 0.00 0.00 98 1011.5
20260510060523 8 0 0.0 0.0 321.69 0.00 0.00 98 1011.7
20260510060024 9 0 0.0 0.0 321.69 0.00 0.00 98 1011.7
20260510055522 9 0 0.0 0.0 321.69 0.00 0.00 98 1011.8
20260510054523 9 0 0.0 0.0 321.69 0.00 0.00 98 1011.8
20260510054023 9 308 0.0 1.6 321.69 0.00 0.00 98 1011.8
20260510053522 8 0 0.0 0.0 321.69 0.00 0.00 98 1011.7
20260510053023 9 0 0.0 0.0 321.69 0.00 0.00 98 1011.8
20260510052523 9 0 0.0 0.0 321.69 0.00 0.00 98 1011.9
20260510052022 9 0 0.0 0.0 321.69 0.00 0.00 98 1012.0
20260510051023 9 0 0.0 0.0 321.69 0.00 0.00 98 1012.0
20260510050522 9 0 0.0 0.0 321.69 0.00 0.00 98 1012.1
20260510050022 9 0 0.0 0.0 321.69 0.00 0.00 98 1012.0
20260510045022 9 0 0.0 0.0 321.69 0.00 0.00 98 1012.0
20260510044523 8 0 0.0 0.0 321.69 0.00 0.00 98 1011.9
20260510043524 9 0 0.0 0.0 321.69 0.00 0.00 98 1012.1
20260510043023 9 0 0.0 0.0 321.69 0.00 0.00 98 1012.2
20260510042522 8 0 0.0 0.0 321.69 0.00 0.00 98 1012.1
20260510042021 8 0 0.0 0.0 321.69 0.00 0.00 98 1012.1
20260510041523 8 0 0.0 0.0 321.69 0.00 0.00 98 1012.1
20260510041022 8 0 0.0 0.0 321.69 0.00 0.00 98 1012.1
20260510040521 8 0 0.0 0.0 321.69 0.00 0.00 98 1012.1
20260510040022 8 0 0.0 0.0 321.69 0.00 0.00 97 1012.1
20260510035524 8 0 0.0 0.0 321.69 0.00 1.27 98 1012.0
20260510035023 8 0 0.0 0.0 321.69 0.00 1.27 98 1012.0
20260510034524 8 284 0.0 4.8 321.69 0.00 1.27 98 1012.2
20260510034021 8 288 3.2 4.8 321.69 0.00 1.27 98 1012.3
20260510033521 8 311 1.6 1.6 321.69 0.00 1.27 98 1012.3
20260510033023 8 0 0.0 0.0 321.69 0.00 1.27 98 1012.3
20260510032523 8 0 0.0 0.0 321.69 0.00 1.27 98 1012.1
20260510032024 9 0 0.0 0.0 321.69 0.00 1.27 98 1012.1
20260510031523 8 0 0.0 0.0 321.69 0.00 1.27 97 1012.3
20260510030022 8 0 0.0 0.0 321.69 0.00 1.27 97 1012.5
20260510025521 8 0 0.0 0.0 321.69 0.00 1.27 97 1012.7
20260510024524 8 0 0.0 0.0 321.69 0.00 1.27 97 1012.7
20260510023521 8 0 0.0 0.0 321.69 0.00 1.27 97 1012.8
20260510023027 8 0 0.0 0.0 321.69 0.00 1.27 97 1012.7
20260510021022 8 0 0.0 0.0 321.69 0.00 1.27 97 1012.8
20260510020522 8 0 0.0 0.0 321.69 0.00 1.27 97 1012.8
20260510020023 8 0 0.0 0.0 321.69 0.00 1.27 97 1012.8
20260510014526 8 0 0.0 0.0 321.69 0.00 1.27 97 1013.0
20260510014022 8 0 0.0 0.0 321.69 0.00 1.27 97 1013.0
20260510013522 8 0 0.0 0.0 321.69 0.00 1.27 97 1012.9
20260510013022 8 0 0.0 0.0 321.69 0.00 1.27 97 1012.7
20260510012521 8 0 0.0 0.0 321.69 0.00 1.27 97 1012.8
20260510012023 8 0 0.0 0.0 321.69 0.00 1.27 97 1012.8
20260510011522 8 0 0.0 0.0 321.69 0.00 1.27 97 1012.8
20260510010522 8 0 0.0 0.0 321.69 0.00 1.27 97 1012.8
20260510010022 8 0 0.0 0.0 321.69 0.00 1.27 97 1012.7
20260510005521 8 0 0.0 0.0 321.67 0.00 1.24 97 1012.6
20260510005021 8 0 0.0 0.0 321.67 0.00 1.24 97 1012.5
20260510004523 8 0 0.0 0.0 321.67 0.00 1.24 97 1012.5
20260510004021 8 0 0.0 0.0 321.67 0.00 1.24 97 1012.4
20260510003022 8 0 0.0 0.0 321.67 0.00 1.24 97 1012.5
20260510002522 8 27 0.0 3.2 321.67 0.00 1.24 97 1012.4
20260510002022 8 0 0.0 0.0 321.64 0.00 1.22 97 1012.4
20260510001522 8 0 0.0 0.0 321.64 0.00 1.22 97 1012.7
20260510000022 8 0 0.0 0.0 321.64 0.00 1.22 97 1012.9
20260509235521 8 0 0.0 0.0 321.64 0.00 1.22 97 1012.8
20260509235021 8 0 0.0 0.0 321.64 0.00 1.22 97 1012.9
20260509234523 8 0 0.0 0.0 321.64 0.00 1.22 97 1012.8
20260509233022 8 96 3.2 4.8 321.64 0.00 1.22 97 1012.7
20260509231522 9 75 0.0 4.8 321.61 0.00 1.19 97 1012.6
20260509231021 9 79 3.2 6.4 321.61 0.00 1.19 97 1012.5
20260509230022 9 59 3.2 6.4 321.59 0.00 1.17 97 1012.4
20260509225521 9 0 1.6 0.0 321.59 0.00 1.17 97 1012.5
20260509225022 9 0 0.0 0.0 321.56 0.00 1.14 97 1012.4
20260509224522 9 0 0.0 0.0 321.56 0.00 1.14 97 1012.4
20260509224021 9 0 0.0 0.0 321.56 0.00 1.14 97 1012.5